Location: La Comballaz
(46.3780°N, 7.0817°E)
Time: 04:09:58
(UTC+00:00)

Envisat - Pass Details

Date: 11 December 2021
Orbit: 764 x 766 km, 98.2° (Epoch: 16 January)

Event Time Altitude Azimuth Distance (km) Brightness Sun altitude
Rises 04:30:34 0° 14° (NNE) 3,244 6.3 -25.6°
Reaches altitude 10° 04:32:53 10° 16° (NNE) 2,313 5.6 -25.2°
Maximum altitude 04:37:59 76° 103° (ESE) 793 3.1 -24.3°
Drops below altitude 10° 04:43:03 10° 189° (S) 2,294 5.5 -23.5°
Sets 04:45:21 0° 191° (S) 3,216 6.2 -23.1°
